Weather Service Report


407 
ASUS43 KOAX 270610
RWRNE 

WEATHER ROUNDUP FOR NEBRASKA
NATIONAL WEATHER SERVICE OMAHA NE
100 AM CDT TUE SEP 27 2016

NOTES: SATELLITE DATA IS BEING USED TO AUGMENT CLOUD COVER ABOVE
       12000 FEET.
       "FAIR" INDICATES FEW OR NO CLOUDS BELOW 12,000 FEET WITH NO
       SIGNIFICANT WEATHER AND/OR OBSTRUCTIONS TO VISIBILITY.

  * THESE STATIONS DO NOT REPORT WEATHER SUCH AS RAIN...SNOW OR FOG.
   
NEZ001>004-019>022-054>056-270700-
NEBRASKA PANHANDLE
  
CITY           SKY/WX    TMP DP  RH WIND       PRES   REMARKS
SCOTTSBLUFF    CLEAR     48  42  80 CALM      30.25S                  
6HR MIN TEMP:  48; 6HR MAX TEMP:  73;                                

ALLIANCE       CLEAR     39  37  92 W6        30.22F WCI  35          
6HR MIN TEMP:  38; 6HR MAX TEMP:  70;                                

CHADRON        CLOUDY    45  41  86 SW6       30.21S                  
6HR MIN TEMP:  45; 6HR MAX TEMP:  72;                                

KIMBALL        CLEAR     46  40  81 W5        30.29F                  
SIDNEY         CLEAR     45  39  79 W7        30.27F                  
6HR MIN TEMP:  44; 6HR MAX TEMP:  71; 6HR PCP: TRACE;                

$$
 
NEZ057>060-069>072-079>082-270700-
SOUTHWEST NEBRASKA
  
CITY           SKY/WX    TMP DP  RH WIND       PRES   REMARKS
NORTH PLATTE   CLEAR     45  39  79 NW3       30.18F                  
6HR MIN TEMP:  44; 6HR MAX TEMP:  72;                                

IMPERIAL       CLEAR     54  41  61 NW5       30.21F                  
6HR MIN TEMP:  51; 6HR MAX TEMP:  75;                                

LEXINGTON      CLEAR     46  41  84 W5        30.15F                  
MCCOOK         CLEAR     48  44  86 SW5       30.16F                  
6HR MIN TEMP:  48; 6HR MAX TEMP:  74;                                

OGALLALA       CLEAR     47  42  81 CALM      30.21S                  
$$
 
NEZ005>010-023>029-035>040-094-270700-
NORTH CENTRAL NEBRASKA
  
CITY           SKY/WX    TMP DP  RH WIND       PRES   REMARKS
VALENTINE      CLOUDY    50  38  63 NW8       30.14F                  
6HR MIN TEMP:  49; 6HR MAX TEMP:  71;                                

AINSWORTH      CLEAR     51  42  71 NW6       30.14F                  
BROKEN BOW     CLEAR     44  40  85 CALM      30.14F                  
6HR MIN TEMP:  42; 6HR MAX TEMP:  72;                                

O'NEILL        CLEAR     47  41  79 W5        30.11F                  
ORD            CLEAR     45  40  82 N6        30.11S                  
6HR MIN TEMP:  43; 6HR MAX TEMP:  69; 6HR PCP: TRACE;                

THEDFORD       CLEAR     48  41  78 W5        30.18S                  
$$
 
NEZ041-046>049-061>064-073>077-083>087-270700-
SOUTH CENTRAL NEBRASKA
  
CITY           SKY/WX    TMP DP  RH WIND       PRES   REMARKS
GRAND ISLAND   CLEAR     50  44  80 W6        30.11F                  
6HR MIN TEMP:  50; 6HR MAX TEMP:  71;                                

AURORA         CLEAR     49  47  91 SW5       30.10F                  
HASTINGS       CLEAR     53  45  74 CALM      30.13F                  
6HR MIN TEMP:  51; 6HR MAX TEMP:  74;                                

HEBRON         CLEAR     48  46  92 CALM      30.11F                  
HOLDREGE       CLEAR     51  45  80 SW6       30.13F                  
KEARNEY *      CLEAR     52  41  66 CALM      30.13F                  
YORK           CLEAR     48  46  93 W7        30.10F                  
$$
 
NEZ011>018-030>034-042>045-270700-
NORTHEAST NEBRASKA
  
CITY           SKY/WX    TMP DP  RH WIND       PRES   REMARKS
NORFOLK        CLEAR     50  42  74 NW3       30.07F                  
6HR MIN TEMP:  47; 6HR MAX TEMP:  67;                                

ALBION         CLEAR     44  42  91 N3        30.10F                  
BLAIR          CLEAR     58  44  60 W3        30.06F                  
FREMONT        CLEAR     50  46  84 NW5       30.06F                  
TEKAMAH        CLEAR     51  43  74 SW5       30.05S                  
6HR MIN TEMP:  48; 6HR MAX TEMP:  67;                                

WAYNE          CLEAR     47  43  88 CALM      30.08S                  
$$

NEZ050>053-065>068-078-088>093-270700-
SOUTHEAST NEBRASKA
  
CITY           SKY/WX    TMP DP  RH WIND       PRES   REMARKS
LINCOLN        CLEAR     52  47  83 CALM      30.09F                  
6HR MIN TEMP:  52; 6HR MAX TEMP:  75;                                

OMAHA EPPLEY   CLEAR     55  47  74 SE3       30.05F                  
6HR MIN TEMP:  55; 6HR MAX TEMP:  73;                                

BEATRICE       CLEAR     54  47  78 CALM      30.10S                  
FALLS CITY     CLEAR     53  48  83 W7        30.08F                  
6HR MIN TEMP:  53; 6HR MAX TEMP:  68;                                

NEBRASKA CITY  CLEAR     56  38  51 W6        30.08S                  
PLATTSMOUTH    CLEAR     56  39  53 SW6       30.06F                  
$$

NEZ044-045-051>053-067-270700-
OMAHA AREA
  
CITY           SKY/WX    TMP DP  RH WIND       PRES   REMARKS
OMAHA EPPLEY   CLEAR     55  47  74 SE3       30.05F                  
6HR MIN TEMP:  55; 6HR MAX TEMP:  73;                                

BLAIR          CLEAR     58  44  60 W3        30.06F                  
FREMONT        CLEAR     50  46  84 NW5       30.06F                  
MILLARD        CLEAR     52  49  90 CALM      30.06F                  
OFFUTT AFB     CLEAR     51  49  93 SW3       30.05F                  
PLATTSMOUTH    CLEAR     56  39  53 SW6       30.06F                  
WAHOO          FAIR      50  46  87 CALM      30.07F                  
$$
  

Return to Home page


Western Regional Climate Center, wrcc@dri.edu